Home > Weather > Lethbridge > Past weeks

Flag for Canada Past Weather in Lethbridge, Alberta, Canada — Yesterday and Last 2 Weeks

Now
45 °F

Clear.


Feels Like: 38 °F
Forecast: 38 / 65 °F
Wind: 15 mph from Northwest

Location: Lethbridge

Current Time: May 31, 2016 at 1:58:47 AM

Latest Report: May 31, 2016 at 1:00 AM


Visibility: 9 mi

Pressure: 30.28 "Hg (27.22 "Hg at 872m altitude)

Humidity: 81%

Dew Point: 39 °F

Location of LethbridgeLocation

Past Weather in Lethbridge — Graph

°F

Lethbridge Temperature Yesterday

Maximum temperature yesterday: 59 °F (at 3:00 PM)
Minimum temperature yesterday: 43 °F (at 5:00 AM)
Average temperature yesterday: 51 °F

High & Low Weather Summary for the Past Weeks

 TemperatureHumidityPressure
High81 °F (May 18, 4:00 PM)100% (May 20, 2:03 AM)30.29 "Hg (May 20, 2:03 AM)
Low34 °F (May 16, 3:00 AM)20% (May 18, 6:00 PM)29.53 "Hg (May 22, 12:00 PM)
Average52 °F70%29.88 "Hg
* Reported May 16 12:00 AM — May 31 12:00 AM, Lethbridge, Weather by CustomWeather, © 2016

Note: Actual official high and low records may vary slightly from our data, if they occured in-between our weather recording intervals... More about our weather records

Advertising

Lethbridge Weather History for the Previous 24 Hours

Scroll right to see more
 ConditionsComfort  
Time TempWeatherWind HumidityBarometerVisibility
12:00 AM
Tue, May 31
45 °FClear.12 mph87%30.29 "Hg9 mi
11:00 PM
Mon, May 30
50 °FPassing clouds.12 mph71%30.27 "Hg9 mi
10:00 PM50 °FPassing clouds.5 mph76%30.26 "Hg40 mi
9:00 PM54 °FPassing clouds.5 mph63%30.22 "Hg40 mi
8:00 PM57 °FPassing clouds.9 mph51%30.20 "Hg40 mi
7:00 PM59 °FPassing clouds.15 mph42%30.18 "Hg40 mi
6:00 PM59 °FPassing clouds.15 mph48%30.17 "Hg40 mi
5:00 PM59 °FScattered clouds.18 mph48%30.16 "Hg40 mi
4:00 PM59 °FBroken clouds.18 mph48%30.16 "Hg40 mi
3:00 PM59 °FPartly sunny.15 mph51%30.16 "Hg40 mi
2:00 PM57 °FBroken clouds.30 mph51%30.15 "Hg40 mi
1:00 PM55 °FPartly sunny.29 mph55%30.15 "Hg40 mi
12:00 PM52 °FPartly sunny.30 mph62%30.15 "Hg40 mi
11:00 AM50 °FBroken clouds.22 mph71%30.14 "Hg40 mi
10:00 AM46 °FPartly sunny.18 mph87%30.15 "Hg40 mi
9:00 AM45 °FPartly sunny.18 mph93%30.12 "Hg40 mi
8:00 AM45 °FLight rain. Mostly cloudy.22 mph87%30.10 "Hg8 mi
7:00 AM43 °FLight rain. Fog.25 mph93%30.09 "Hg6 mi
6:00 AM43 °FLight rain. Mostly cloudy.24 mph93%30.07 "Hg4 mi
5:00 AM43 °FLight rain. Overcast.22 mph93%30.05 "Hg7 mi
4:02 AM45 °FLight rain. Overcast.23 mph87%30.02 "Hg9 mi
3:00 AM45 °FPartly cloudy.20 mph87%30.00 "Hg9 mi
2:00 AM46 °FLight rain. Mostly cloudy.16 mph87%30.01 "Hg9 mi
1:00 AM48 °FMostly cloudy.20 mph87%30.00 "Hg9 mi
Weather by CustomWeather, © 2016

See weather overviewHow to use our weather pages